This is the latest recevied weather packets stored in our database for station/object WS2Z. If no packets are shown the sender has not sent any weather packets the latest 10 day(s).
| Time | Temp. | Humidity | Pressure | Rain* | Wind** | Luminosity | Snow |
|---|---|---|---|---|---|---|---|
| 1777988424 | 24.44° C | 87% | 1015.8 hPa | 0 mm | - | 462 W/m² | - |
| 1777988121 | 23.33° C | 88% | 1015.7 hPa | 0 mm | - | 463 W/m² | - |
| 1777987817 | 23.33° C | 88% | 1015.6 hPa | 0 mm | - | 444 W/m² | - |
| 1777987514 | 23.33° C | 89% | 1015.6 hPa | 0 mm | - | 426 W/m² | - |
| 1777987212 | 22.78° C | 90% | 1015.8 hPa | 0 mm | - | 250 W/m² | - |
| 1777986908 | 22.78° C | 91% | 1015.8 hPa | 0 mm | - | 103 W/m² | - |
| 1777986606 | 22.22° C | 91% | 1015.6 hPa | 0 mm | - | 97 W/m² | - |
| 1777986304 | 22.22° C | 93% | 1015.6 hPa | 0 mm | - | 86 W/m² | - |
| 1777986002 | 21.67° C | 94% | 1015.5 hPa | 0 mm | - | 84 W/m² | - |
| 1777985698 | 21.67° C | 94% | 1015.4 hPa | 0 mm | - | 96 W/m² | - |
| 1777985395 | 21.67° C | 94% | 1015.6 hPa | 0 mm | - | 119 W/m² | - |
| 1777985092 | 21.67° C | 94% | 1015.6 hPa | 0 mm | - | 119 W/m² | - |
| 1777984788 | 21.11° C | 95% | 1015.3 hPa | 0 mm | - | 109 W/m² | - |
| 1777984484 | 21.11° C | 95% | 1015.3 hPa | 0 mm | - | 86 W/m² | - |
| 1777984180 | 20.56° C | 95% | 1015.3 hPa | 0 mm | - | 82 W/m² | - |
| 1777983878 | 20.56° C | 96% | 1015.4 hPa | 0 mm | - | 76 W/m² | - |
| 1777983574 | 20.56° C | 95% | 1015.4 hPa | 0 mm | - | 61 W/m² | - |
| 1777983272 | 20° C | 96% | 1015.3 hPa | 0 mm | - | 54 W/m² | - |
| 1777982967 | 20° C | 96% | 1015.1 hPa | 0 mm | - | 49 W/m² | - |
| 1777982664 | 20° C | 95% | 1015.4 hPa | 0 mm | - | 53 W/m² | - |
| 1777982363 | 20° C | 95% | 1015.3 hPa | 0 mm | - | 51 W/m² | - |
| 1777982060 | 20° C | 96% | 1015.2 hPa | 0 mm | - | 39 W/m² | - |
| 1777981758 | 20° C | 96% | 1015.1 hPa | 0 mm | - | 30 W/m² | - |
| 1777981454 | 20° C | 95% | 1014.9 hPa | 0 mm | - | 41 W/m² | - |
| 1777981150 | 20° C | 96% | 1014.9 hPa | 0 mm | - | 33 W/m² | - |
* Rain latest hour (hover to see other rain measurements)
** Current wind speed in m/s (hover to see current wind gust speed)